sat.trackr.live / text

‹ back to catalog

IRIDIUM 103

NORAD 41918 · 2017-003B

PAYLOAD ACTIVE UNKNOWN

§ Identity

Operator
Country
US
Launch date
2017-01-14
Launch site
AFWTR
Launch vehicle
Mass (kg)
RCS (m²)
2.39

Purposes: comms

External: N2YO · Heavens-Above · Gunter

§ Orbital elements

Epoch: 2026-09-12T22:06:46.067328Z

Period
100.40 min
Inclination
86.3937°
Eccentricity
0.0002314
Mean motion
14.34217068 rev/d
Perigee alt
776.0 km
Apogee alt
779.3 km
Semi-major
7,155.8 km
B*
-3.1459e-6
RAAN
51.7445°
Arg perigee
89.7644°
Mean anomaly
270.3816°
Rev number
50,580

§ Raw data

IRIDIUM 1031 41918U 17003B   26255.92136652  .00000011  00000+0 -31459-5 0  99972 41918  86.3937  51.7445 0002314  89.7644 270.3816 14.34217068505806

JSON: /api/v1/satellites/41918 · /tle

For live sub-satellite position, see the globe view (requires WebGL).

§ Visibility from observer

Set your observer location to see the next 7 days of passes ≥ 10°. The values pass through the URL so the page stays shareable.

No JS? Fill the form by hand. The geolocation button needs JavaScript.